MEA304 OLBA-HECA

Flight info

Callsign MEA304
Flight time N/A
Altitude 34000
Route KAD UG2 ELIKA N159 VELOX/N0466F330 N71 LAKTO N307 MELDO A16 CVO
Aircraft A320/M-SDE3FGHIRWY/LB1

Departure

Time 2026-05-05 11:56
Airport Beirut Rafic Hariri International Airport (OLBA)

Arrival

Time N/A
Airport Cairo International Airport (HECA)
Time Latitude Longitude Altitude Speed Heading
2026-05-05 11:41 33.82373 35.49437 24 ft 0 kts 310°
2026-05-05 11:47 33.82372 35.49438 25 ft 2 kts 310°
2026-05-05 11:47 33.82356 35.49462 24 ft 4 kts 305°
2026-05-05 11:47 33.82342 35.49489 24 ft 4 kts 294°
2026-05-05 11:48 33.82341 35.49538 24 ft 1 kts 214°
2026-05-05 11:48 33.82344 35.49541 24 ft 0 kts 214°
2026-05-05 11:50 33.82342 35.49539 24 ft 2 kts 214°
2026-05-05 11:50 33.82292 35.49498 24 ft 12 kts 213°
2026-05-05 11:50 33.82214 35.49431 24 ft 15 kts 216°
2026-05-05 11:51 33.82138 35.49456 23 ft 15 kts 113°
2026-05-05 11:51 33.82060 35.49502 23 ft 16 kts 210°
2026-05-05 11:51 33.81965 35.49421 25 ft 17 kts 214°
2026-05-05 11:51 33.81862 35.49332 23 ft 19 kts 216°
2026-05-05 11:52 33.81750 35.49240 24 ft 20 kts 214°
2026-05-05 11:52 33.81633 35.49139 24 ft 21 kts 216°
2026-05-05 11:52 33.81507 35.49032 23 ft 23 kts 215°
2026-05-05 11:52 33.81368 35.48914 19 ft 26 kts 216°
2026-05-05 11:53 33.81217 35.48787 21 ft 27 kts 214°
2026-05-05 11:53 33.81066 35.48659 24 ft 26 kts 215°
2026-05-05 11:53 33.80913 35.48528 24 ft 28 kts 215°
2026-05-05 11:53 33.80751 35.48391 23 ft 29 kts 215°
2026-05-05 11:54 33.80642 35.48299 23 ft 19 kts 215°
2026-05-05 11:54 33.80521 35.48228 23 ft 20 kts 200°
2026-05-05 11:54 33.80384 35.48173 23 ft 21 kts 199°
2026-05-05 11:54 33.80304 35.48215 24 ft 11 kts 118°
2026-05-05 11:55 33.80309 35.48314 22 ft 13 kts 79°
2026-05-05 11:55 33.80316 35.48434 21 ft 15 kts 91°
2026-05-05 11:55 33.80399 35.48537 23 ft 32 kts 33°
2026-05-05 11:55 33.80812 35.48854 22 ft 105 kts 33°
2026-05-05 11:56 33.81586 35.49454 24 ft 156 kts 33°
2026-05-05 11:56 33.82572 35.50211 442 ft 169 kts 30°
2026-05-05 11:56 33.83559 35.50974 1044 ft 167 kts 27°
2026-05-05 11:56 33.83876 35.51219 1260 ft 168 kts 28°
2026-05-05 11:57 33.84907 35.52118 1770 ft 181 kts 34°
2026-05-05 11:57 33.85979 35.53061 2088 ft 202 kts 27°
2026-05-05 11:57 33.87368 35.53533 2401 ft 219 kts 355°
2026-05-05 11:58 33.88823 35.52879 2726 ft 235 kts 314°
2026-05-05 11:58 33.89644 35.51153 3175 ft 247 kts 275°
2026-05-05 11:58 33.89676 35.49047 4009 ft 252 kts 265°
2026-05-05 11:58 33.89538 35.46970 5168 ft 247 kts 263°
2026-05-05 11:59 33.89362 35.44912 6182 ft 248 kts 262°
2026-05-05 11:59 33.89184 35.42831 7094 ft 252 kts 262°
2026-05-05 11:59 33.89013 35.40724 8005 ft 255 kts 263°
2026-05-05 11:59 33.88850 35.38587 8901 ft 259 kts 263°
2026-05-05 12:00 33.88696 35.36435 9751 ft 264 kts 263°
2026-05-05 12:00 33.88538 35.34204 10335 ft 277 kts 263°
2026-05-05 12:00 33.88369 35.31795 10575 ft 301 kts 264°
2026-05-05 12:00 33.88186 35.29192 10748 ft 323 kts 264°
2026-05-05 12:01 33.87997 35.26391 10879 ft 347 kts 264°
2026-05-05 12:01 33.87805 35.23450 11293 ft 357 kts 265°
2026-05-05 12:01 33.87612 35.20440 11955 ft 361 kts 266°
2026-05-05 12:01 33.87410 35.17410 12718 ft 363 kts 266°
2026-05-05 12:02 33.87198 35.14376 13465 ft 365 kts 266°
2026-05-05 12:02 33.86984 35.11326 14159 ft 366 kts 266°
2026-05-05 12:02 33.86770 35.08269 14834 ft 366 kts 266°
2026-05-05 12:02 33.86556 35.05217 15463 ft 367 kts 267°
2026-05-05 12:03 33.86341 35.02152 16091 ft 368 kts 267°
2026-05-05 12:03 33.86125 34.99079 16719 ft 369 kts 267°
2026-05-05 12:03 33.85907 34.96005 17364 ft 369 kts 267°
2026-05-05 12:03 33.85690 34.92924 18008 ft 370 kts 267°
2026-05-05 12:04 33.85472 34.89832 18585 ft 371 kts 268°
2026-05-05 12:04 33.85252 34.86726 19095 ft 374 kts 268°
2026-05-05 12:04 33.85029 34.83602 19587 ft 376 kts 268°
2026-05-05 12:04 33.84804 34.80457 20064 ft 379 kts 268°
2026-05-05 12:05 33.84578 34.77286 20534 ft 382 kts 268°
2026-05-05 12:05 33.84348 34.74088 20972 ft 384 kts 268°
2026-05-05 12:05 33.84113 34.70873 21376 ft 387 kts 269°
2026-05-05 12:05 33.83879 34.67636 21775 ft 390 kts 269°
2026-05-05 12:06 33.83639 34.64360 22173 ft 393 kts 269°
2026-05-05 12:06 33.83396 34.61077 22562 ft 395 kts 269°
2026-05-05 12:06 33.83157 34.57773 22941 ft 398 kts 270°
2026-05-05 12:06 33.82986 34.54488 23314 ft 399 kts 271°
2026-05-05 12:07 33.82883 34.51141 23631 ft 401 kts 272°
2026-05-05 12:07 33.82815 34.47774 23887 ft 405 kts 272°
2026-05-05 12:07 33.82755 34.44369 24160 ft 408 kts 272°
2026-05-05 12:07 33.82685 34.40943 24467 ft 411 kts 272°
2026-05-05 12:08 33.82600 34.37500 24800 ft 413 kts 271°
2026-05-05 12:08 33.82500 34.34044 25135 ft 415 kts 271°
2026-05-05 12:08 33.82388 34.30571 25463 ft 417 kts 271°
2026-05-05 12:08 33.82310 34.28216 25725 ft 417 kts 271°
2026-05-05 12:09 33.82159 34.23627 26382 ft 414 kts 271°
2026-05-05 12:09 33.82046 34.20174 26880 ft 412 kts 271°
2026-05-05 12:09 33.81933 34.16727 27338 ft 412 kts 271°
2026-05-05 12:09 33.81858 34.14405 27665 ft 411 kts 270°
2026-05-05 12:10 33.81553 34.10982 28163 ft 413 kts 262°
2026-05-05 12:10 33.80737 34.07655 28687 ft 418 kts 252°
2026-05-05 12:10 33.79430 34.04568 29227 ft 423 kts 243°
2026-05-05 12:10 33.77742 34.01663 29771 ft 423 kts 240°
2026-05-05 12:11 33.76031 33.98783 30245 ft 422 kts 240°
2026-05-05 12:11 33.74333 33.95916 30678 ft 421 kts 240°
2026-05-05 12:11 33.72633 33.93036 31100 ft 420 kts 240°
2026-05-05 12:11 33.70942 33.90166 31518 ft 420 kts 240°
2026-05-05 12:12 33.69257 33.87307 31980 ft 418 kts 240°
2026-05-05 12:12 33.67578 33.84464 32473 ft 416 kts 240°
2026-05-05 12:12 33.65903 33.81636 32972 ft 414 kts 239°
2026-05-05 12:12 33.64235 33.78828 33467 ft 412 kts 239°
2026-05-05 12:13 33.62572 33.76036 33897 ft 411 kts 239°
2026-05-05 12:13 33.60912 33.73245 33991 ft 411 kts 240°
2026-05-05 12:13 33.57576 33.67621 34010 ft 415 kts 240°
2026-05-05 12:14 33.54218 33.61966 34011 ft 416 kts 239°
2026-05-05 12:14 33.50846 33.56324 34013 ft 417 kts 239°
2026-05-05 12:15 33.47466 33.50682 34013 ft 417 kts 239°
2026-05-05 12:15 33.44092 33.45036 34013 ft 417 kts 239°
2026-05-05 12:16 33.40712 33.39381 34021 ft 417 kts 239°
2026-05-05 12:16 33.37322 33.33747 34021 ft 417 kts 239°
2026-05-05 12:17 33.33930 33.28105 34024 ft 417 kts 239°
2026-05-05 12:17 33.30550 33.22467 34020 ft 417 kts 239°
2026-05-05 12:18 33.27157 33.16839 34034 ft 417 kts 239°
2026-05-05 12:18 33.23767 33.11228 34030 ft 417 kts 239°
2026-05-05 12:19 33.20374 33.05613 34037 ft 417 kts 239°
2026-05-05 12:19 33.17019 32.99982 34010 ft 415 kts 240°
2026-05-05 12:20 33.13732 32.94317 34026 ft 415 kts 241°
2026-05-05 12:20 33.10446 32.88659 34030 ft 415 kts 241°
2026-05-05 12:21 33.07149 32.83003 34033 ft 415 kts 240°
2026-05-05 12:21 33.03840 32.77357 34035 ft 416 kts 240°
2026-05-05 12:22 33.00522 32.71714 34007 ft 416 kts 241°
2026-05-05 12:22 32.97209 32.66071 34023 ft 415 kts 241°
2026-05-05 12:23 32.93894 32.60436 34040 ft 415 kts 241°
2026-05-05 12:23 32.90573 32.54807 34040 ft 416 kts 240°
2026-05-05 12:24 32.87265 32.49209 34007 ft 416 kts 241°
2026-05-05 12:24 32.83914 32.43539 34024 ft 416 kts 240°
2026-05-05 12:25 32.80579 32.37906 34027 ft 417 kts 241°
2026-05-05 12:25 32.77297 32.32285 34040 ft 416 kts 241°
2026-05-05 12:26 32.74014 32.26619 34035 ft 416 kts 241°
2026-05-05 12:26 32.70721 32.20958 34033 ft 416 kts 241°
2026-05-05 12:27 32.67418 32.15303 34042 ft 417 kts 241°
2026-05-05 12:27 32.64107 32.09661 34051 ft 417 kts 241°
2026-05-05 12:28 32.60809 32.04020 34049 ft 416 kts 241°
2026-05-05 12:28 32.57512 31.98366 34020 ft 417 kts 242°
2026-05-05 12:29 32.54212 31.92729 34040 ft 416 kts 242°
2026-05-05 12:29 32.50917 31.87095 34051 ft 416 kts 242°
2026-05-05 12:30 32.47614 31.81480 34058 ft 416 kts 242°
2026-05-05 12:30 32.44303 31.75858 34063 ft 416 kts 242°
2026-05-05 12:31 32.41007 31.70233 34030 ft 415 kts 242°
2026-05-05 12:31 32.37704 31.64625 34044 ft 415 kts 242°
2026-05-05 12:32 32.34398 31.59027 34059 ft 415 kts 242°
2026-05-05 12:32 32.31089 31.53438 34065 ft 415 kts 242°
2026-05-05 12:33 32.27777 31.47838 34068 ft 416 kts 242°
2026-05-05 12:33 32.24481 31.42281 34048 ft 415 kts 242°
2026-05-05 12:34 32.21164 31.36703 34065 ft 415 kts 242°
2026-05-05 12:34 32.17849 31.31127 34075 ft 415 kts 242°
2026-05-05 12:35 32.14533 31.25550 34077 ft 414 kts 242°
2026-05-05 12:35 32.11212 31.19989 34075 ft 415 kts 242°
2026-05-05 12:36 32.07893 31.14430 34041 ft 415 kts 242°
2026-05-05 12:36 32.06022 31.11797 34052 ft 425 kts 231°
2026-05-05 12:36 32.03632 31.09658 34056 ft 440 kts 219°
2026-05-05 12:37 32.00774 31.08182 34056 ft 457 kts 205°
2026-05-05 12:37 31.97579 31.07558 34058 ft 476 kts 190°
2026-05-05 12:37 31.90864 31.08170 34062 ft 486 kts 183°
2026-05-05 12:38 31.84126 31.08919 34070 ft 486 kts 183°
2026-05-05 12:38 31.77378 31.09640 34074 ft 487 kts 183°
2026-05-05 12:39 31.70623 31.10360 34080 ft 487 kts 183°